CAPE
0 0 0 0 0 0 0 0 0 0 0 0 0 0 0 0 0 0 0 0 0 0 0 0 0 0 0 0 0 0 0 546 1355 1283 1416 1971 2300 2531 2560 2525 2656 2675 2665 2642 2682 2750 2918 3062 2874 2846 2693 2642 2543 2443 2366 2273 2216 2233 2213 2149 2118 2075 1990 1839 1563 1210 1126 1112 1093 1085 1062 984 698 669 583 620 752 730 625 729 954 991 1003 1030 994 1015
0 0 0 0 0 0 0 0 0 0 0 0 0 0 0 0 0 0 0 0 0 0 0 0 0 0 0 0 0 0 0 0 78 1177 1230 1686 2065 2397 2609 2630 2560 2629 2645 2581 2746 2848 3001 3085 2914 2778 2727 2708 2547 2396 2327 2268 2251 2266 2246 2210 2185 2053 1909 1624 1236 1218 1180 1140 1141 1149 1106 1054 831 683 566 604 724 886 811 562 620 778 985 952 960 881
2 2 0 0 0 0 0 0 0 0 0 0 0 0 0 0 0 0 0 0 0 0 0 0 0 0 0 0 0 0 0 0 0 379 1096 1243 1621 2022 2286 2458 2562 2643 2765 2701 2821 3048 3115 3180 3032 2879 2803 2675 2478 2354 2263 2238 2279 2287 2295 2235 2135 2028 1701 1268 1245 1286 1324 1279 1231 1158 1121 1052 753 539 567 664 881 941 789 681 561 680 899 936 924 798
15 0 0 0 0 0 0 0 0 0 0 0 0 0 0 0 0 0 0 0 0 0 0 0 0 0 0 0 0 0 0 0 0 98 637 956 1108 1497 1813 2125 2337 2530 2740 2820 2925 3167 3252 3262 3026 2893 2759 2511 2371 2272 2239 2225 2268 2317 2259 2082 1893 1745 1413 1320 1279 1285 1302 1308 1277 1240 1215 1150 965 643 715 786 941 986 897 884 839 842 951 961 821 612
9 2 0 0 0 0 0 0 0 0 0 0 0 0 0 0 0 0 0 0 0 0 0 0 0 0 0 0 0 0 0 50 46 250 537 643 785 996 1224 1291 1569 2101 2528 2759 2930 3173 3318 3349 3119 2846 2601 2403 2332 2269 2236 2218 2215 2194 2020 1751 1479 1421 1405 1325 1334 1301 1329 1270 1089 1132 1168 1157 1080 732 768 837 926 1007 1024 938 887 829 802 710 525 500
0 0 0 0 0 0 0 0 0 0 0 0 0 0 0 0 0 0 0 0 0 0 0 0 0 0 0 0 0 0 70 142 170 194 300 453 616 764 894 1012 1232 1502 1859 2348 2768 3125 3225 3238 2990 2710 2491 2420 2349 2295 2326 2176 2003 1829 1683 1499 1287 1339 1443 1467 1431 1428 1407 1312 1006 917 985 1069 943 817 834 874 939 943 1001 1038 1013 879 803 631 720 806
0 0 0 0 0 0 0 0 0 0 0 0 0 0 0 0 0 0 0 0 0 0 0 0 0 0 0 0 0 0 190 236 226 230 283 442 563 625 788 890 1045 1305 1633 1948 2310 2747 3024 2959 2853 2672 2429 2312 2166 2094 1766 1670 1504 1278 1336 1450 1478 1517 1524 1468 1471 1476 1344 1242 1045 869 953 1076 977 846 842 905 966 971 966 985 961 882 765 814 767 752
0 0 0 0 0 0 0 0 0 0 0 0 0 0 0 0 0 0 0 0 0 0 0 0 0 0 0 0 0 26 245 274 308 333 348 456 643 719 733 829 914 1079 1389 1674 1926 2306 2593 2747 2735 2523 1941 1771 1654 1428 1426 1144 865 831 936 1557 1600 1577 1537 1484 1552 1466 1168 1000 994 920 937 1011 990 902 841 736 838 872 877 876 800 759 729 728 777 751
0 0 0 0 0 0 0 0 0 0 0 0 0 0 0 0 0 0 0 0 0 0 0 0 0 0 0 0 0 4 289 358 448 414 449 537 700 765 834 910 991 1092 1241 1536 1816 2148 2306 2318 2121 1602 1188 1178 1349 1425 1604 1356 1054 994 1106 1331 1567 1601 1544 1435 1385 1314 1260 1171 972 929 935 905 911 955 1001 740 710 798 834 783 751 719 692 776 683 608
0 0 0 0 0 0 0 0 0 0 0 0 0 0 0 0 0 0 0 0 0 0 0 0 0 0 0 0 3 4 165 352 457 524 512 515 512 602 691 836 990 1145 1247 1420 1642 1820 2042 2233 1655 1278 1463 1548 1339 1305 1199 1314 1397 1278 1125 1269 1530 1489 1380 1357 1299 1210 1204 1208 1112 953 944 988 1045 1024 863 602 744 874 855 833 736 675 680 827 774 529
0 0 0 0 0 0 0 0 0 0 0 0 0 0 0 0 0 0 0 0 0 0 0 0 0 0 0 19 56 83 230 462 572 557 553 557 562 592 650 726 915 1094 1214 1354 1566 1759 1906 2069 1856 1628 1736 1497 1489 1174 856 1092 1131 1264 1263 1185 1427 1418 1285 1245 1238 1202 1143 1086 1012 940 846 886 926 898 731 721 771 830 831 807 741 657 600 758 741 638
0 0 0 0 0 0 0 0 0 0 0 0 0 0 0 0 0 0 0 0 0 0 0 0 0 0 0 43 166 302 463 551 508 522 589 647 678 752 802 862 929 1084 1293 1423 1590 1606 1641 1706 1700 1812 1705 1436 1158 1036 914 1110 998 992 980 1076 1333 1376 1245 1140 1125 1144 1040 970 984 819 514 363 388 791 795 769 729 756 774 769 712 644 562 705 724 765
0 0 0 0 0 0 0 0 0 0 0 0 0 0 0 0 0 0 0 0 0 0 0 0 0 0 0 24 159 316 284 404 517 696 744 806 775 872 999 1073 1152 1173 1304 1503 1407 1483 1481 1582 1560 1649 1649 1250 1169 1086 950 866 841 974 1242 1158 1213 1318 1250 1215 1158 1104 1046 992 908 788 431 142 276 476 680 728 757 815 858 800 686 592 494 531 713 820
0 0 0 0 0 0 0 0 0 0 0 0 0 0 0 0 0 0 0 0 0 0 0 0 0 35 89 142 175 370 384 347 383 539 680 797 862 986 992 1102 1102 1174 1206 1238 1372 1476 1592 1576 1570 1570 1580 1372 1154 1137 1186 1218 1274 1352 1366 1257 1149 1119 1012 1014 1036 974 922 892 840 851 820 791 670 545 450 498 647 701 668 732 679 539 443 399 527 669
0 0 0 0 0 0 0 0 0 0 0 0 0 0 0 0 0 0 0 0 0 0 0 0 0 0 13 362 264 481 460 404 434 523 534 518 631 771 958 1180 1222 1169 1277 1331 1366 1300 1297 1348 1469 1543 1457 1525 1442 1307 1331 1356 1278 1094 1100 1122 1078 1072 914 869 744 759 836 1068 1075 955 965 902 678 662 481 467 536 627 708 698 682 631 530 507 488 486
0 0 0 0 0 0 0 0 0 0 0 0 0 0 0 0 0 0 0 0 0 0 0 0 0 0 0 331 439 237 334 335 486 522 582 342 415 457 463 632 857 993 1098 1182 1202 1178 1181 1190 1162 1135 1082 963 889 956 1016 1062 985 922 937 873 852 828 776 673 603 676 655 857 898 875 823 677 590 307 379 441 516 581 628 689 714 697 573 568 520 584
0 0 0 0 0 0 0 0 0 0 0 0 0 0 0 0 0 0 0 0 0 0 0 0 6 26 17 127 314 227 285 376 597 520 652 472 489 549 452 489 432 27 595 716 786 823 984 917 993 924 880 793 752 718 707 698 639 653 686 724 802 781 740 679 571 463 593 761 710 830 681 356 641 608 368 364 392 433 558 676 751 707 617 577 522 519
0 0 0 0 0 0 0 0 0 0 0 0 0 0 0 0 0 0 0 0 0 0 0 1 12 15 9 93 159 238 327 495 516 600 594 529 494 449 393 447 460 316 164 308 458 485 552 627 717 732 708 628 557 500 462 435 400 432 426 487 506 509 500 544 552 470 429 407 520 487 482 560 505 502 522 526 420 453 586 668 734 740 644 492 533 589
0 0 0 0 0 0 0 0 0 0 0 0 0 0 0 0 0 0 0 0 0 0 0 1 1 17 0 53 49 210 353 453 365 516 537 422 126 5 5 7 16 38 42 30 114 351 329 359 350 363 351 291 273 315 370 347 365 400 390 406 446 464 470 488 512 537 542 521 368 392 381 412 557 719 651 514 455 506 562 711 884 862 748 563 487 594
0 0 0 0 0 0 0 0 0 0 0 0 0 0 0 0 0 0 0 0 0 0 0 0 2 8 0 0 30 328 390 372 203 307 367 294 3 4 4 4 1 21 109 92 166 203 225 243 352 331 300 277 277 265 305 352 404 430 423 440 486 512 500 454 474 484 493 464 417 405 437 427 507 576 679 636 558 595 589 604 721 823 705 582 543 625
0 0 0 0 0 0 0 0 0 0 0 0 0 0 0 0 0 0 0 0 0 0 0 0 1 1 0 0 81 322 330 252 213 260 320 328 179 4 11 10 7 231 102 34 199 194 229 223 249 295 312 313 327 331 314 367 372 356 421 494 520 482 454 436 382 396 494 612 548 434 458 441 457 496 637 697 773 853 816 736 759 774 705 570 547 651
0 0 0 0 0 0 0 0 0 0 0 0 0 0 0 0 0 0 0 0 0 0 0 0 0 0 0 17 182 457 322 241 256 243 282 288 27 22 11 190 0 12 2 12 28 19 66 76 104 119 244 11 14 259 309 380 382 384 392 396 408 414 373 311 379 399 359 418 470 524 464 426 533 376 364 443 646 747 682 673 706 740 694 561 556 574
0 0 0 0 0 6 0 0 0 0 0 0 0 0 0 0 0 0 0 0 0 0 0 0 0 0 3 21 225 444 473 358 238 116 158 258 82 11 32 4 0 0 0 0 0 0 1 1 1 0 0 0 0 0 0 2 3 362 384 385 375 383 378 352 333 296 343 380 465 444 441 449 442 429 521 640 702 696 709 627 635 704 634 537 606 581
6 0 0 0 0 0 0 0 0 0 0 0 0 0 0 0 0 0 0 0 0 0 0 0 0 10 27 170 200 394 406 300 134 0 159 213 133 14 45 6 0 0 1 2 2 1 2 1 1 0 0 0 0 2 3 3 4 3 1 2 2 2 183 213 270 294 257 214 288 388 498 527 628 589 566 675 660 641 654 651 651 702 622 570 656 697
0 0 0 0 0 9 11 0 0 0 59 7 1 0 0 0 0 0 0 0 0 0 0 0 0 48 14 80 131 252 327 290 184 20 0 112 0 11 88 53 0 0 0 0 0 0 0 0 0 0 0 1 2 3 2 3 3 3 1 2 1 2 5 6 4 14 9 0 6 308 411 502 623 681 622 636 656 667 656 661 676 692 652 667 731 745
0 0 0 0 0 0 0 0 0 20 44 39 0 0 0 0 0 0 0 0 0 0 0 0 0 31 23 61 122 253 326 334 217 60 46 101 92 163 155 80 92 97 80 34 4 0 0 0 0 0 1 2 3 2 2 1 2 2 0 0 0 1 2 4 4 10 19 78 86 141 338 462 538 610 632 578 592 706 674 666 704 780 797 743 759 650
0 0 0 0 0 0 0 0 2 0 0 28 1 0 0 0 0 0 0 0 0 0 0 0 0 38 0 16 95 146 225 310 174 62 129 82 11 27 81 158 150 62 27 15 0 0 0 0 1 2 2 3 2 1 2 2 2 1 0 0 0 0 1 2 3 3 4 22 121 108 91 282 312 366 463 471 476 458 520 663 665 737 817 819 726 676
0 0 0 0 0 0 0 1 6 17 3 1 0 0 0 0 0 0 0 0 0 0 0 0 0 0 0 41 100 128 118 191 160 114 86 32 32 40 82 133 45 23 10 1 0 0 0 0 1 2 2 3 3 2 3 2 0 0 0 0 1 0 0 1 2 2 4 4 50 94 97 45 208 248 309 399 452 433 516 658 725 738 736 742 610 549
0 0 0 0 1 1 49 0 44 6 9 11 8 9 7 2 0 0 0 0 0 0 0 0 0 0 0 25 94 120 114 187 20 88 51 18 1 133 176 80 47 2 3 3 1 0 0 0 0 2 3 4 5 3 1 0 0 0 0 0 0 0 0 1 2 3 3 2 2 44 86 104 97 191 264 313 328 370 452 625 706 768 772 685 529 450
0 0 0 0 50 57 5 74 38 38 7 8 15 11 12 5 1 0 0 0 0 0 0 0 0 0 0 0 26 98 126 170 72 18 9 42 65 16 56 5 1 3 4 4 4 3 0 0 1 1 2 2 2 1 0 0 0 0 0 0 0 0 0 1 2 2 2 3 1 2 15 68 91 101 142 256 265 331 409 562 678 752 720 654 551 456
0 20 0 22 49 76 9 7 21 57 44 1 3 10 18 15 16 6 0 0 0 0 0 0 0 0 0 0 0 64 124 176 83 96 111 30 43 24 0 0 0 4 10 7 5 2 0 0 0 0 1 1 2 0 0 0 0 0 0 1 0 0 0 0 1 2 1 2 1 1 1 11 51 88 108 254 188 252 356 477 616 692 672 488 364 253
21 68 4 26 43 37 67 89 10 39 29 48 45 22 2 0 5 12 1 0 0 0 0 0 0 0 0 0 1 51 82 134 138 100 74 28 14 4 0 0 2 4 12 6 0 0 0 0 0 194 57 1 1 1 0 0 0 0 0 1 0 0 2 0 0 1 2 2 2 1 1 1 5 34 65 50 191 216 360 496 549 554 297 220 175 52
6 57 54 16 73 81 68 76 73 45 45 31 42 44 38 18 2 9 13 10 4 2 0 0 0 0 1 0 11 37 99 109 11 5 15 8 2 2 1 1 4 8 12 1 0 0 0 0 13 148 0 1 1 0 0 0 0 0 0 1 0 1 0 0 0 0 1 1 1 1 0 0 2 6 22 57 144 278 327 423 401 260 120 150 46 52
35 48 7 12 21 120 65 78 74 56 30 16 16 27 26 35 23 18 15 10 6 0 7 6 7 4 0 0 21 31 21 37 19 0 3 6 7 2 1 0 10 8 9 4 2 0 0 0 132 29 78 62 0 0 0 0 0 0 2 2 0 0 0 0 0 0 0 0 1 1 0 0 0 0 9 28 59 180 253 296 430 268 76 75 53 85
96 94 78 5 22 58 76 63 62 31 14 14 23 24 16 8 4 0 11 3 6 8 12 15 18 13 8 2 18 16 24 3 0 0 0 4 4 1 1 2 5 0 0 3 0 1 0 0 0 0 0 0 0 0 0 0 0 0 0 0 0 0 0 0 0 0 0 0 0 0 0 0 0 12 24 10 50 133 168 254 337 222 123 60 30 53
118 135 104 49 67 102 61 99 56 8 1 5 15 3 3 0 1 2 2 4 5 3 10 14 15 14 13 10 3 0 0 9 15 2 9 4 1 0 6 6 1 0 0 2 13 1 0 0 0 0 0 0 2 0 0 0 0 0 0 1 0 0 0 0 0 0 0 0 0 0 0 0 0 0 35 20 20 26 83 181 163 169 138 33 32 64
113 110 102 58 40 105 54 67 4 19 2 0 0 0 0 11 11 3 0 4 0 0 0 2 12 11 30 11 21 27 18 17 19 4 1 0 0 3 14 2 0 0 1 0 8 4 1 0 1 0 0 2 0 0 1 1 1 3 3 0 0 0 0 0 0 0 0 0 0 0 1 2 0 0 5 4 21 21 117 181 97 112 78 64 83 66
25 136 32 14 4 12 38 23 3 1 0 0 0 0 0 5 6 14 0 0 1 0 0 5 2 21 24 30 32 38 28 12 7 8 2 1 3 4 11 7 0 1 0 0 14 6 7 5 2 0 0 0 0 0 0 0 1 2 4 0 0 0 0 0 0 0 0 0 0 0 0 3 3 1 0 5 4 3 54 150 99 96 62 68 71 59
30 10 38 2 20 0 0 1 0 0 0 0 0 0 0 0 3 10 1 2 0 0 1 3 3 4 5 25 39 18 14 2 6 5 2 6 10 9 6 4 0 0 0 0 5 9 2 5 7 0 0 0 0 0 0 0 0 1 2 1 1 1 0 0 0 1 1 0 0 0 0 1 7 1 0 0 3 18 3 9 65 86 79 48 44 26
16 12 24 0 0 0 0 0 0 0 0 0 0 0 0 0 0 0 0 0 0 1 2 3 2 4 6 9 5 0 0 3 6 10 9 6 9 5 4 4 0 0 0 1 1 2 4 6 2 2 9 5 0 0 0 0 0 0 0 0 3 1 0 0 0 2 8 3 0 0 0 0 0 6 5 0 1 5 3 0 7 17 40 42 48 57
0 0 0 14 0 7 0 0 0 0 0 0 0 1 0 6 1 0 0 0 0 0 0 1 0 7 6 3 7 2 7 13 18 13 3 4 12 13 5 0 0 0 1 2 1 2 2 1 3 6 4 0 0 0 0 0 0 0 0 0 0 0 0 0 0 0 0 8 1 0 0 0 0 1 3 3 6 4 3 4 4 8 15 5 30 27
0 0 0 0 13 0 6 6 0 0 0 0 0 0 4 0 0 1 0 0 0 0 0 0 2 0 6 8 10 11 7 0 7 11 10 8 6 4 1 0 0 0 4 10 5 4 1 0 3 2 2 0 0 0 0 0 0 0 0 0 0 0 0 0 2 0 0 1 8 2 1 0 0 0 1 1 2 2 4 6 6 6 8 8 10 16
0 0 1 0 0 0 0 0 0 4 0 0 0 0 1 1 0 0 0 0 0 0 0 0 0 1 6 4 5 10 9 8 12 7 5 10 8 4 2 0 3 5 5 3 5 7 8 11 13 8 6 4 1 2 4 1 0 0 0 0 0 0 0 0 2 1 0 0 2 3 2 2 0 0 2 2 3 11 9 11 12 14 10 13 18 14
0 0 0 0 0 0 0 0 12 0 0 0 0 0 0 0 0 0 0 0 0 0 0 0 2 4 4 4 13 8 11 13 13 8 8 11 11 8 4 7 11 12 14 10 6 5 6 4 4 3 2 2 0 0 4 4 8 5 0 0 0 4 2 0 0 0 2 0 0 1 0 1 2 0 0 2 11 20 13 5 1 0 1 2 0 1
0 0 0 9 1 0 0 0 0 0 0 0 0 0 0 0 4 4 2 0 0 0 0 0 3 4 6 5 10 10 9 11 12 7 9 8 4 2 2 8 11 8 10 11 8 5 0 0 2 2 0 0 1 2 3 4 3 1 1 0 3 6 5 7 1 5 4 2 0 0 0 1 4 7 8 15 4 4 6 8 8 2 2 2 2 2
0 0 0 0 0 0 1 0 0 3 1 0 1 1 4 4 8 4 2 1 0 0 0 0 4 8 9 9 5 4 8 8 10 9 15 14 14 8 6 5 6 10 14 17 15 12 12 13 10 6 3 4 4 0 0 4 3 0 1 2 3 1 0 6 9 3 6 4 2 0 0 1 1 0 0 0 2 3 2 0 1 2 3 6 5 7
0 0 0 0 0 0 0 0 0 0 0 0 1 3 5 6 9 4 6 2 6 6 2 1 7 12 10 5 4 3 3 4 5 3 1 2 3 2 0 3 2 4 4 4 6 10 11 11 11 5 9 11 5 0 0 0 0 0 2 3 0 0 1 2 10 7 1 3 2 0 0 0 0 0 0 2 13 9 5 2 0 1 2 7 10 8
0 0 0 0 0 0 0 1 0 0 1 2 2 3 3 6 7 8 6 8 6 6 5 3 4 4 4 4 3 4 5 4 4 2 0 0 4 5 2 5 5 1 1 3 4 5 6 6 7 7 7 5 0 4 1 0 0 0 0 1 0 0 1 4 8 11 11 3 1 2 1 2 0 0 0 0 9 7 5 4 0 0 2 1 0 0
0 0 0 0 0 1 0 0 1 2 1 2 1 4 1 0 1 2 5 4 2 0 0 0 0 0 0 0 0 0 1 1 0 0 3 5 1 0 0 0 0 3 4 3 2 0 0 0 0 1 1 0 1 2 0 1 1 0 0 0 0 0 1 1 3 4 9 8 2 2 2 0 0 4 2 0 0 0 0 2 0 5 2 0 0 0
0 0 0 0 0 0 0 0 0 0 0 0 4 6 5 2 1 1 2 2 3 4 3 1 1 0 0 0 0 2 2 0 0 0 0 0 0 1 2 4 2 0 0 0 0 0 0 0 0 0 0 0 0 0 0 0 0 0 0 0 0 0 0 0 0 0 0 4 3 2 5 0 0 0 0 0 4 1 0 0 0 2 0 0 1 0
0 0 0 0 0 0 0 0 0 0 0 0 0 1 2 0 2 5 7 3 0 0 0 1 0 0 0 0 0 0 0 0 0 0 0 0 0 1 2 2 1 1 0 0 0 0 0 0 0 0 0 0 0 0 0 0 0 0 0 0 0 0 2 3 2 1 0 0 0 0 2 7 4 0 0 2 2 0 0 0 0 0 0 13 11 12
Wind_Speed
nan nan nan nan nan nan nan nan nan nan nan nan nan nan nan nan nan nan nan nan nan nan nan nan nan nan nan nan nan nan nan 22 20 19 17 15 13 10 11 12 13 15 20 25 22 16 21 20 16 17 19 18 18 17 18 19 19 21 24 26 26 27 28 28 28 27 26 26 26 24 22 20 17 16 18 18 19 20 19 17 13 12 12 8 9 12
nan nan nan nan nan nan nan nan nan nan nan nan nan nan nan nan nan nan nan nan nan nan nan nan nan nan nan nan nan nan nan nan nan 23 23 20 17 19 19 18 19 20 22 23 17 17 21 21 14 17 20 20 20 19 20 21 21 23 25 26 26 26 26 27 27 26 24 25 26 26 24 22 19 17 16 17 19 22 23 22 13 12 10 7 8 14
nan nan nan nan nan nan nan nan nan nan nan nan nan nan nan nan nan nan nan nan nan nan nan nan nan nan nan nan nan nan nan nan nan 25 25 27 27 24 23 22 20 19 18 17 15 17 20 22 18 18 19 18 18 21 23 23 24 26 27 27 27 25 25 24 24 24 22 22 24 26 25 24 22 20 18 18 20 23 25 18 13 13 10 11 14 19
nan nan nan nan nan nan nan nan nan nan nan nan nan nan nan nan nan nan nan nan nan nan nan nan nan nan nan nan nan nan nan nan nan nan 31 27 24 23 21 21 20 18 16 16 15 18 23 24 19 19 20 20 21 22 24 25 26 28 29 29 29 26 24 23 22 22 21 22 23 24 25 23 22 22 23 22 23 27 25 14 11 11 13 17 17 19
nan nan nan nan nan nan nan nan nan nan nan nan nan nan nan nan nan nan nan nan nan nan nan nan nan nan nan nan nan nan nan nan nan 36 36 31 26 22 21 20 20 18 17 16 15 18 22 22 20 19 20 20 22 25 27 28 29 29 29 30 30 26 23 22 21 21 22 24 24 25 24 21 19 21 24 23 22 26 24 17 11 9 15 19 18 17
nan nan nan nan nan nan nan nan nan nan nan nan nan nan nan nan nan nan nan nan nan nan nan nan nan nan nan nan nan nan nan 39 37 40 38 33 27 24 22 20 19 19 19 18 16 17 18 19 20 19 20 20 21 25 28 30 32 34 35 33 28 25 23 22 21 21 21 21 23 24 24 20 17 17 21 21 22 24 23 18 15 10 13 20 19 14
nan nan nan nan nan nan nan nan nan nan nan nan nan nan nan nan nan nan nan nan nan nan nan nan nan nan nan nan nan nan 35 37 39 40 34 31 28 25 22 21 20 19 18 17 16 17 16 17 19 19 20 20 19 23 30 34 37 38 30 19 15 17 18 20 20 20 20 19 19 20 20 17 14 14 15 19 20 21 22 21 18 15 16 18 16 13
nan nan nan nan nan nan nan nan nan nan nan nan nan nan nan nan nan nan nan nan nan nan nan nan nan nan nan nan nan nan 36 39 39 36 32 30 28 25 21 20 19 19 19 17 18 18 17 17 19 21 28 28 25 29 35 36 33 23 11 7 11 14 18 20 20 18 18 18 17 16 16 17 16 15 16 17 19 21 23 22 18 17 18 17 15 14
nan nan nan nan nan nan nan nan nan nan nan nan nan nan nan nan nan nan nan nan nan nan nan nan nan nan nan nan nan nan 35 37 35 31 30 29 26 22 19 17 18 20 22 22 22 20 19 18 26 31 27 24 24 31 32 27 26 21 16 15 18 18 19 19 18 18 17 17 18 16 16 19 21 22 21 22 22 22 23 22 20 17 16 15 13 15
nan nan nan nan nan nan nan nan nan nan nan nan nan nan nan nan nan nan nan nan nan nan nan nan nan nan nan nan nan nan 32 32 30 28 27 26 24 21 20 19 19 20 21 23 24 24 25 28 29 25 25 26 24 25 28 29 28 26 23 24 26 24 21 19 18 18 17 16 19 20 22 23 25 26 26 24 23 22 21 20 19 18 17 15 15 17
nan nan nan nan nan nan nan nan nan nan nan nan nan nan nan nan nan nan nan nan nan nan nan nan nan nan nan nan nan nan 27 22 26 25 25 25 24 24 23 23 22 21 21 22 24 27 27 28 29 25 25 25 24 25 29 30 29 28 27 30 30 25 21 21 19 18 18 19 21 24 28 30 30 29 26 23 21 20 17 15 16 17 16 16 18 21
nan nan nan nan nan nan nan nan nan nan nan nan nan nan nan nan nan nan nan nan nan nan nan nan nan nan nan nan 32 32 31 31 29 27 27 27 26 25 24 24 25 25 24 25 25 26 27 27 26 24 24 26 24 26 27 28 29 29 26 27 25 21 20 21 21 22 21 25 30 33 34 36 29 19 18 19 20 19 14 13 15 17 18 17 20 23
nan nan nan nan nan nan nan nan nan nan nan nan nan nan nan nan nan nan nan nan nan nan nan nan nan nan nan nan 32 34 32 30 29 27 27 26 26 26 27 28 26 26 28 27 28 28 28 28 26 26 26 26 24 23 25 26 27 26 25 26 25 22 20 19 22 23 27 31 36 34 32 29 21 16 18 21 20 18 15 15 17 18 18 20 21 23
nan nan nan nan nan nan nan nan nan nan nan nan nan nan nan nan nan nan nan nan nan nan nan nan nan nan nan 34 32 33 33 29 29 27 25 25 26 27 30 32 33 31 29 28 28 29 30 30 28 26 25 25 24 22 23 24 25 24 24 23 25 24 22 21 20 24 31 33 31 28 27 24 19 19 26 23 19 16 16 17 17 17 18 20 20 22
nan nan nan nan nan nan nan nan nan nan nan nan nan nan nan nan nan nan nan nan nan nan nan nan nan nan nan 33 34 34 29 29 30 28 26 26 26 27 28 31 33 34 31 28 29 29 29 29 29 27 26 25 24 24 24 24 23 23 24 24 24 23 25 25 24 27 29 27 26 24 21 22 22 23 24 23 20 21 20 20 18 16 17 18 20 22
nan nan nan nan nan nan nan nan nan nan nan nan nan nan nan nan nan nan nan nan nan nan nan nan nan nan nan 34 32 31 31 34 32 31 29 30 28 29 29 30 30 30 30 29 29 29 29 28 28 26 24 24 23 24 26 26 26 24 23 23 23 23 24 25 26 31 31 26 27 26 22 22 24 24 22 23 30 29 25 22 21 18 17 18 20 21
nan nan nan nan nan nan nan nan nan nan nan nan nan nan nan nan nan nan nan nan nan nan nan nan nan nan nan 33 34 31 36 34 32 31 31 31 32 32 33 32 30 nan 27 27 27 26 25 25 25 23 22 22 23 25 26 26 26 25 23 22 22 21 22 23 26 30 30 28 32 29 24 25 26 24 22 23 28 27 24 24 23 20 18 19 20 21
nan nan nan nan nan nan nan nan nan nan nan nan nan nan nan nan nan nan nan nan nan nan nan nan nan nan nan nan 35 33 35 34 34 33 34 34 34 34 34 34 31 28 25 25 24 23 24 24 23 22 22 23 24 25 26 27 26 25 24 23 22 21 21 22 25 28 27 26 30 31 25 23 25 25 23 24 26 25 24 24 25 23 20 19 20 20
nan nan nan nan nan nan nan nan nan nan nan nan nan nan nan nan nan nan nan nan nan nan nan nan nan nan nan nan nan 31 34 34 36 37 37 36 35 nan nan nan nan nan nan nan 23 23 23 22 21 21 22 24 27 27 27 27 25 24 22 22 21 21 21 21 23 25 24 24 29 31 26 22 22 24 25 26 27 26 24 26 26 22 19 20 21 21
nan nan nan nan nan nan nan nan nan nan nan nan nan nan nan nan nan nan nan nan nan nan nan nan nan nan nan nan nan 36 37 37 40 41 39 37 nan nan nan nan nan nan 26 nan 23 22 22 21 21 21 22 24 24 24 23 23 22 21 18 17 17 18 20 21 22 23 23 22 22 25 24 21 23 26 24 24 26 25 25 24 23 22 20 19 22 22
nan nan nan nan nan nan nan nan nan nan nan nan nan nan nan nan nan nan nan nan nan nan nan nan nan nan nan nan nan 37 39 40 42 41 39 35 35 nan nan nan nan 29 27 nan 23 22 21 20 21 21 21 20 18 18 18 17 17 16 15 16 16 17 18 19 19 20 21 22 19 16 18 19 22 30 28 23 21 22 24 25 25 23 20 23 22 23
nan nan nan nan nan nan nan nan nan nan nan nan nan nan nan nan nan nan nan nan nan nan nan nan nan nan nan nan 38 38 39 40 40 42 37 36 nan nan nan 32 nan nan nan nan nan nan nan nan 20 21 21 nan nan 17 16 14 14 16 16 16 17 17 18 18 17 16 17 18 15 15 19 16 22 31 28 20 22 24 23 23 23 23 23 21 22 24
nan nan nan nan nan nan nan nan nan nan nan nan nan nan nan nan nan nan nan nan nan nan nan nan nan nan nan nan 43 40 38 38 38 39 37 34 nan nan nan nan nan nan nan nan nan nan nan nan nan nan nan nan nan nan nan nan nan 16 15 16 17 18 17 16 14 13 12 13 12 14 18 19 19 19 17 21 24 21 22 24 23 22 21 22 23 24
nan nan nan nan nan nan nan nan nan nan nan nan nan nan nan nan nan nan nan nan nan nan nan nan nan nan nan 37 39 39 38 39 37 nan 36 32 29 nan nan nan nan nan nan nan nan nan nan nan nan nan nan nan nan nan nan nan nan nan nan nan nan nan 16 14 14 12 10 9 9 11 15 17 17 13 14 18 19 18 18 21 20 20 19 22 25 25
nan nan nan nan nan nan nan nan nan nan nan nan nan nan nan nan nan nan nan nan nan nan nan nan nan nan nan nan 36 36 37 38 37 nan nan 31 nan nan nan nan nan nan nan nan nan nan nan nan nan nan nan nan nan nan nan nan nan nan nan nan nan nan nan nan nan nan nan nan nan 9 11 11 13 11 12 14 16 17 17 20 20 19 19 23 24 25
nan nan nan nan nan nan nan nan nan nan nan nan nan nan nan nan nan nan nan nan nan nan nan nan nan nan nan nan 33 32 33 34 34 nan nan 28 nan 22 21 nan nan nan nan nan nan nan nan nan nan nan nan nan nan nan nan nan nan nan nan nan nan nan nan nan nan nan nan nan nan 9 10 10 11 10 12 16 20 21 20 21 18 19 21 24 26 27
nan nan nan nan nan nan nan nan nan nan nan nan nan nan nan nan nan nan nan nan nan nan nan nan nan nan nan nan nan 29 28 28 30 nan 29 nan nan nan nan 22 23 nan nan nan nan nan nan nan nan nan nan nan nan nan nan nan nan nan nan nan nan nan nan nan nan nan nan nan 9 10 nan 12 11 11 15 18 21 22 21 21 20 20 20 21 26 28
nan nan nan nan nan nan nan nan nan nan nan nan nan nan nan nan nan nan nan nan nan nan nan nan nan nan nan nan nan 27 27 27 28 27 nan nan nan nan nan 23 nan nan nan nan nan nan nan nan nan nan nan nan nan nan nan nan nan nan nan nan nan nan nan nan nan nan nan nan nan nan nan nan 12 12 13 19 20 20 21 22 21 19 20 21 24 25
nan nan nan nan nan nan nan nan nan nan nan nan nan nan nan nan nan nan nan nan nan nan nan nan nan nan nan nan nan 26 25 26 nan nan nan nan nan 25 25 nan nan nan nan nan nan nan nan nan nan nan nan nan nan nan nan nan nan nan nan nan nan nan nan nan nan nan nan nan nan nan nan 13 nan 16 19 20 17 19 21 21 21 21 22 20 22 23
nan nan nan nan nan nan nan nan nan nan nan nan nan nan nan nan nan nan nan nan nan nan nan nan nan nan nan nan nan nan 28 29 nan nan nan nan nan nan nan nan nan nan nan nan nan nan nan nan nan nan nan nan nan nan nan nan nan nan nan nan nan nan nan nan nan nan nan nan nan nan nan nan nan 18 20 20 20 21 22 21 21 22 23 22 23 27
nan nan nan nan nan nan nan nan nan nan nan nan nan nan nan nan nan nan nan nan nan nan nan nan nan nan nan nan nan nan 30 30 nan nan 29 nan nan nan nan nan nan nan nan nan nan nan nan nan nan nan nan nan nan nan nan nan nan nan nan nan nan nan nan nan nan nan nan nan nan nan nan nan nan nan 20 21 22 23 23 23 22 22 23 23 25 28
nan nan nan nan nan nan nan nan nan nan nan nan nan nan nan nan nan nan nan nan nan nan nan nan nan nan nan nan nan nan nan 32 32 30 nan nan nan nan nan nan nan nan nan nan nan nan nan nan nan 24 nan nan nan nan nan nan nan nan nan nan nan nan nan nan nan nan nan nan nan nan nan nan nan nan nan nan 23 24 24 24 24 23 24 25 26 nan
nan nan nan nan nan nan nan nan nan nan nan nan nan nan nan nan nan nan nan nan nan nan nan nan nan nan nan nan nan nan nan 32 nan nan nan nan nan nan nan nan nan nan nan nan nan nan nan nan nan 22 nan nan nan nan nan nan nan nan nan nan nan nan nan nan nan nan nan nan nan nan nan nan nan nan nan nan 21 25 25 23 24 25 26 26 nan nan
nan nan nan nan nan 28 nan nan nan nan nan nan nan nan nan nan nan nan nan nan nan nan nan nan nan nan nan nan nan nan nan nan nan nan nan nan nan nan nan nan nan nan nan nan nan nan nan nan 24 nan nan nan nan nan nan nan nan nan nan nan nan nan nan nan nan nan nan nan nan nan nan nan nan nan nan nan nan 27 24 25 25 25 nan nan nan nan
nan nan nan nan nan nan nan nan nan nan nan nan nan nan nan nan nan nan nan nan nan nan nan nan nan nan nan nan nan nan nan nan nan nan nan nan nan nan nan nan nan nan nan nan nan nan nan nan nan nan nan nan nan nan nan nan nan nan nan nan nan nan nan nan nan nan nan nan nan nan nan nan nan nan nan nan nan 25 25 26 28 30 29 nan nan nan
25 27 22 nan nan 30 nan nan nan nan nan nan nan nan nan nan nan nan nan nan nan nan nan nan nan nan nan nan nan nan nan nan nan nan nan nan nan nan nan nan nan nan nan nan nan nan nan nan nan nan nan nan nan nan nan nan nan nan nan nan nan nan nan nan nan nan nan nan nan nan nan nan nan nan nan nan nan nan nan 30 33 35 33 nan nan nan
33 32 32 nan nan 30 nan nan nan nan nan nan nan nan nan nan nan nan nan nan nan nan nan nan nan nan nan nan nan nan nan nan nan nan nan nan nan nan nan nan nan nan nan nan nan nan nan nan nan nan nan nan nan nan nan nan nan nan nan nan nan nan nan nan nan nan nan nan nan nan nan nan nan nan nan nan nan nan 30 34 nan 39 nan nan nan nan
nan 34 nan nan nan nan nan nan nan nan nan nan nan nan nan nan nan nan nan nan nan nan nan nan nan nan nan nan nan nan nan nan nan nan nan nan nan nan nan nan nan nan nan nan nan nan nan nan nan nan nan nan nan nan nan nan nan nan nan nan nan nan nan nan nan nan nan nan nan nan nan nan nan nan nan nan nan nan nan 29 nan nan nan nan nan nan
nan nan nan nan nan nan nan nan nan nan nan nan nan nan nan nan nan nan nan nan nan nan nan nan nan nan nan nan nan nan nan nan nan nan nan nan nan nan nan nan nan nan nan nan nan nan nan nan nan nan nan nan nan nan nan nan nan nan nan nan nan nan nan nan nan nan nan nan nan nan nan nan nan nan nan nan nan nan nan nan nan nan nan nan nan nan
nan nan nan nan nan nan nan nan nan nan nan nan nan nan nan nan nan nan nan nan nan nan nan nan nan nan nan nan nan nan nan nan nan nan nan nan nan nan nan nan nan nan nan nan nan nan nan nan nan nan nan nan nan nan nan nan nan nan nan nan nan nan nan nan nan nan nan nan nan nan nan nan nan nan nan nan nan nan nan nan nan nan nan nan nan nan
nan nan nan nan nan nan nan nan nan nan nan nan nan nan nan nan nan nan nan nan nan nan nan nan nan nan nan nan nan nan nan nan nan nan nan nan nan nan nan nan nan nan nan nan nan nan nan nan nan nan nan nan nan nan nan nan nan nan nan nan nan nan nan nan nan nan nan nan nan nan nan nan nan nan nan nan nan nan nan nan nan nan nan nan nan nan
nan nan nan nan nan nan nan nan nan nan nan nan nan nan nan nan nan nan nan nan nan nan nan nan nan nan nan nan nan nan nan nan nan nan nan nan nan nan nan nan nan nan nan nan nan nan nan nan nan nan nan nan nan nan nan nan nan nan nan nan nan nan nan nan nan nan nan nan nan nan nan nan nan nan nan nan nan nan nan nan nan nan nan nan nan nan
nan nan nan nan nan nan nan nan nan nan nan nan nan nan nan nan nan nan nan nan nan nan nan nan nan nan nan nan nan nan nan nan nan nan nan nan nan nan nan nan nan nan nan nan nan nan nan nan nan nan nan nan nan nan nan nan nan nan nan nan nan nan nan nan nan nan nan nan nan nan nan nan nan nan nan nan nan nan nan nan nan nan nan nan nan nan
nan nan nan nan nan nan nan nan nan nan nan nan nan nan nan nan nan nan nan nan nan nan nan nan nan nan nan nan nan nan nan nan nan nan nan nan nan nan nan nan nan nan nan nan nan nan nan nan nan nan nan nan nan nan nan nan nan nan nan nan nan nan nan nan nan nan nan nan nan nan nan nan nan nan nan nan nan nan nan nan nan nan nan nan nan nan
nan nan nan nan nan nan nan nan nan nan nan nan nan nan nan nan nan nan nan nan nan nan nan nan nan nan nan nan nan nan nan nan nan nan nan nan nan nan nan nan nan nan nan nan nan nan nan nan nan nan nan nan nan nan nan nan nan nan nan nan nan nan nan nan nan nan nan nan nan nan nan nan nan nan nan nan nan nan nan nan nan nan nan nan nan nan
nan nan nan nan nan nan nan nan nan nan nan nan nan nan nan nan nan nan nan nan nan nan nan nan nan nan nan nan nan nan nan nan nan nan nan nan nan nan nan nan nan nan nan nan nan nan nan nan nan nan nan nan nan nan nan nan nan nan nan nan nan nan nan nan nan nan nan nan nan nan nan nan nan nan nan nan nan nan nan nan nan nan nan nan nan nan
nan nan nan nan nan nan nan nan nan nan nan nan nan nan nan nan nan nan nan nan nan nan nan nan nan nan nan nan nan nan nan nan nan nan nan nan nan nan nan nan nan nan nan nan nan nan nan nan nan nan nan nan nan nan nan nan nan nan nan nan nan nan nan nan nan nan nan nan nan nan nan nan nan nan nan nan nan nan nan nan nan nan nan nan nan nan
nan nan nan nan nan nan nan nan nan nan nan nan nan nan nan nan nan nan nan nan nan nan nan nan nan nan nan nan nan nan nan nan nan nan nan nan nan nan nan nan nan nan nan nan nan nan nan nan nan nan nan nan nan nan nan nan nan nan nan nan nan nan nan nan nan nan nan nan nan nan nan nan nan nan nan nan nan nan nan nan nan nan nan nan nan nan
nan nan nan nan nan nan nan nan nan nan nan nan nan nan nan nan nan nan nan nan nan nan nan nan nan nan nan nan nan nan nan nan nan nan nan nan nan nan nan nan nan nan nan nan nan nan nan nan nan nan nan nan nan nan nan nan nan nan nan nan nan nan nan nan nan nan nan nan nan nan nan nan nan nan nan nan nan nan nan nan nan nan nan nan nan nan
nan nan nan nan nan nan nan nan nan nan nan nan nan nan nan nan nan nan nan nan nan nan nan nan nan nan nan nan nan nan nan nan nan nan nan nan nan nan nan nan nan nan nan nan nan nan nan nan nan nan nan nan nan nan nan nan nan nan nan nan nan nan nan nan nan nan nan nan nan nan nan nan nan nan nan nan nan nan nan nan nan nan nan nan nan nan
nan nan nan nan nan nan nan nan nan nan nan nan nan nan nan nan nan nan nan nan nan nan nan nan nan nan nan nan nan nan nan nan nan nan nan nan nan nan nan nan nan nan nan nan nan nan nan nan nan nan nan nan nan nan nan nan nan nan nan nan nan nan nan nan nan nan nan nan nan nan nan nan nan nan nan nan nan nan nan nan nan nan nan nan nan nan
Wind_Direction
nan nan nan nan nan nan nan nan nan nan nan nan nan nan nan nan nan nan nan nan nan nan nan nan nan nan nan nan nan nan nan 217 219 227 231 228 226 225 226 234 245 255 248 254 262 268 260 260 271 284 282 280 277 282 285 287 289 287 287 286 288 287 287 289 290 293 297 298 302 309 317 319 314 309 306 310 303 294 287 281 275 276 272 275 281 273
nan nan nan nan nan nan nan nan nan nan nan nan nan nan nan nan nan nan nan nan nan nan nan nan nan nan nan nan nan nan nan nan nan 215 217 218 216 211 214 221 226 233 237 249 249 257 261 267 278 281 285 288 296 296 297 301 304 298 295 294 291 290 291 294 297 298 302 304 306 309 313 313 310 311 312 309 296 286 280 271 270 262 245 251 253 248
nan nan nan nan nan nan nan nan nan nan nan nan nan nan nan nan nan nan nan nan nan nan nan nan nan nan nan nan nan nan nan nan nan 219 230 231 226 226 229 233 235 238 244 248 254 263 268 269 284 293 291 299 308 308 310 310 307 302 297 294 291 288 289 290 294 295 298 298 299 302 303 311 306 303 298 289 281 281 282 286 273 265 260 250 236 239
nan nan nan nan nan nan nan nan nan nan nan nan nan nan nan nan nan nan nan nan nan nan nan nan nan nan nan nan nan nan nan nan nan nan 233 233 244 246 246 252 249 250 256 261 266 273 276 282 298 304 303 308 311 310 308 307 305 298 295 291 286 282 279 280 284 289 290 290 290 293 297 305 309 298 289 282 277 277 277 285 273 267 265 261 255 254
nan nan nan nan nan nan nan nan nan nan nan nan nan nan nan nan nan nan nan nan nan nan nan nan nan nan nan nan nan nan nan nan nan 227 226 227 228 240 248 254 266 278 281 276 274 277 283 293 307 311 310 310 314 311 311 308 303 296 290 278 272 268 266 268 275 279 277 280 280 284 288 293 294 289 288 285 280 277 280 284 269 267 269 264 254 253
nan nan nan nan nan nan nan nan nan nan nan nan nan nan nan nan nan nan nan nan nan nan nan nan nan nan nan nan nan nan nan 224 227 231 230 228 231 233 240 244 251 262 270 283 288 285 286 293 294 301 305 310 307 307 307 297 288 277 265 256 254 255 254 256 262 264 269 276 280 284 292 298 299 296 294 297 288 277 280 287 284 276 268 258 250 249
nan nan nan nan nan nan nan nan nan nan nan nan nan nan nan nan nan nan nan nan nan nan nan nan nan nan nan nan nan nan 224 229 233 235 236 236 238 241 244 246 250 258 270 273 269 266 274 284 290 293 298 288 282 274 265 260 257 249 241 245 264 272 272 266 262 264 263 264 272 282 282 279 285 291 285 282 282 280 272 272 277 275 260 257 257 254
nan nan nan nan nan nan nan nan nan nan nan nan nan nan nan nan nan nan nan nan nan nan nan nan nan nan nan nan nan nan 230 233 234 235 237 240 241 243 246 249 251 254 258 269 269 267 268 276 290 281 254 246 253 265 260 255 261 267 274 336 326 297 288 284 280 276 267 265 265 269 270 265 256 253 258 270 273 267 264 266 270 261 251 248 246 243
nan nan nan nan nan nan nan nan nan nan nan nan nan nan nan nan nan nan nan nan nan nan nan nan nan nan nan nan nan nan 235 234 238 236 236 240 243 243 245 246 248 251 254 259 264 267 270 272 258 253 256 257 259 268 276 279 281 282 290 322 325 304 286 280 281 282 277 270 261 256 261 262 250 246 246 251 256 261 258 257 256 261 254 244 240 242
nan nan nan nan nan nan nan nan nan nan nan nan nan nan nan nan nan nan nan nan nan nan nan nan nan nan nan nan nan nan 234 238 240 238 237 238 239 237 238 241 245 250 254 257 258 259 262 265 271 272 271 266 267 269 271 272 272 268 265 276 292 299 288 274 277 276 272 268 260 255 259 262 254 245 241 249 253 256 255 252 251 256 259 253 250 247
nan nan nan nan nan nan nan nan nan nan nan nan nan nan nan nan nan nan nan nan nan nan nan nan nan nan nan nan nan nan 234 236 239 241 240 242 246 248 251 250 251 251 255 259 260 260 265 271 275 279 270 275 278 278 277 277 275 273 274 278 285 292 284 273 273 269 262 262 253 253 259 257 257 251 249 259 263 259 254 248 248 254 257 256 257 253
nan nan nan nan nan nan nan nan nan nan nan nan nan nan nan nan nan nan nan nan nan nan nan nan nan nan nan nan 232 235 233 231 236 242 242 243 246 253 258 260 258 257 257 259 262 261 261 263 267 271 275 274 279 279 274 275 277 279 284 285 285 287 285 280 276 272 262 259 256 259 259 252 248 254 268 277 275 267 256 241 238 240 243 243 245 250
nan nan nan nan nan nan nan nan nan nan nan nan nan nan nan nan nan nan nan nan nan nan nan nan nan nan nan nan 233 237 238 235 236 240 243 246 249 254 258 258 258 257 256 258 260 262 262 264 263 260 263 270 271 274 279 281 284 285 283 281 279 276 273 272 274 273 266 262 269 289 292 277 273 293 285 267 261 259 252 241 234 235 239 239 238 241
nan nan nan nan nan nan nan nan nan nan nan nan nan nan nan nan nan nan nan nan nan nan nan nan nan nan nan 229 234 241 243 236 243 244 246 250 253 258 259 254 249 248 251 254 256 257 257 257 260 259 258 267 274 277 280 279 283 285 284 282 282 280 275 267 266 270 270 277 292 304 301 286 271 263 268 272 272 270 263 254 245 240 241 245 248 249
nan nan nan nan nan nan nan nan nan nan nan nan nan nan nan nan nan nan nan nan nan nan nan nan nan nan nan 237 239 245 249 250 253 255 251 251 253 255 259 257 249 244 244 247 248 248 249 250 253 254 256 265 277 283 283 284 284 289 291 290 284 277 272 267 264 271 280 294 300 295 291 286 272 271 277 275 273 266 261 257 254 247 246 250 254 261
nan nan nan nan nan nan nan nan nan nan nan nan nan nan nan nan nan nan nan nan nan nan nan nan nan nan nan 239 245 250 255 256 258 257 256 256 257 256 257 256 251 247 245 245 243 242 243 248 249 253 255 260 268 270 278 284 290 293 292 290 287 282 274 273 269 270 283 298 290 278 276 271 269 275 275 264 255 257 260 260 260 255 251 249 250 254
nan nan nan nan nan nan nan nan nan nan nan nan nan nan nan nan nan nan nan nan nan nan nan nan nan nan nan 243 249 253 257 261 261 261 260 259 259 258 257 256 254 nan 247 247 247 248 248 249 251 256 260 262 262 262 265 272 280 284 286 284 283 279 274 274 275 276 286 296 287 288 287 276 274 277 279 264 258 260 258 257 261 260 254 250 248 252
nan nan nan nan nan nan nan nan nan nan nan nan nan nan nan nan nan nan nan nan nan nan nan nan nan nan nan nan 253 255 261 264 263 264 263 259 259 260 258 256 253 249 248 247 247 251 251 251 252 257 264 264 263 264 267 270 276 280 280 278 271 270 266 271 274 280 287 296 297 297 292 286 281 276 270 258 254 253 254 252 256 256 252 252 253 255
nan nan nan nan nan nan nan nan nan nan nan nan nan nan nan nan nan nan nan nan nan nan nan nan nan nan nan nan nan 262 264 265 265 263 259 257 258 nan nan nan nan nan nan nan 245 246 246 249 252 258 264 266 265 264 266 268 270 271 270 270 267 262 265 268 276 285 294 306 305 298 290 281 274 269 265 259 249 248 251 247 250 255 252 251 254 256
nan nan nan nan nan nan nan nan nan nan nan nan nan nan nan nan nan nan nan nan nan nan nan nan nan nan nan nan nan 260 264 265 265 261 261 260 nan nan nan nan nan nan 245 nan 243 244 245 250 254 259 264 264 261 260 262 264 264 258 261 261 260 263 265 267 269 282 295 302 294 279 268 264 259 256 257 254 251 252 258 262 262 260 256 258 258 258
nan nan nan nan nan nan nan nan nan nan nan nan nan nan nan nan nan nan nan nan nan nan nan nan nan nan nan nan nan 258 263 265 265 265 260 258 254 nan nan nan nan 244 241 nan 239 240 243 250 253 260 265 265 261 262 260 261 260 263 262 258 258 259 263 267 272 275 287 302 295 266 255 253 252 249 244 240 244 245 245 251 260 263 261 258 261 260
nan nan nan nan nan nan nan nan nan nan nan nan nan nan nan nan nan nan nan nan nan nan nan nan nan nan nan nan 246 256 262 263 263 265 262 256 nan nan nan 248 nan nan nan nan nan nan nan nan 255 260 260 nan nan 257 251 253 259 254 255 258 261 263 265 263 266 268 280 294 291 266 264 251 240 249 255 252 245 245 247 255 259 257 255 259 259 258
nan nan nan nan nan nan nan nan nan nan nan nan nan nan nan nan nan nan nan nan nan nan nan nan nan nan nan nan 248 250 255 258 261 263 260 256 nan nan nan nan nan nan nan nan nan nan nan nan nan nan nan nan nan nan nan nan nan 257 254 253 257 261 262 262 265 268 274 289 284 258 253 261 255 258 266 256 255 256 252 248 249 250 252 253 254 253
nan nan nan nan nan nan nan nan nan nan nan nan nan nan nan nan nan nan nan nan nan nan nan nan nan nan nan 246 246 248 251 252 253 nan 261 256 254 nan nan nan nan nan nan nan nan nan nan nan nan nan nan nan nan nan nan nan nan nan nan nan nan nan 256 257 261 263 265 273 275 259 254 265 278 276 259 256 251 252 251 248 247 248 250 250 250 254
nan nan nan nan nan nan nan nan nan nan nan nan nan nan nan nan nan nan nan nan nan nan nan nan nan nan nan nan 249 252 253 254 256 nan nan 256 nan nan nan nan nan nan nan nan nan nan nan nan nan nan nan nan nan nan nan nan nan nan nan nan nan nan nan nan nan nan nan nan nan 265 265 284 295 282 256 243 239 243 245 240 243 249 256 257 255 254
nan nan nan nan nan nan nan nan nan nan nan nan nan nan nan nan nan nan nan nan nan nan nan nan nan nan nan nan 252 252 254 254 254 nan nan 252 nan 249 248 nan nan nan nan nan nan nan nan nan nan nan nan nan nan nan nan nan nan nan nan nan nan nan nan nan nan nan nan nan nan 267 275 290 299 284 266 257 253 257 260 261 263 262 260 264 262 258
nan nan nan nan nan nan nan nan nan nan nan nan nan nan nan nan nan nan nan nan nan nan nan nan nan nan nan nan nan 256 253 256 256 nan 254 nan nan nan nan 251 251 nan nan nan nan nan nan nan nan nan nan nan nan nan nan nan nan nan nan nan nan nan nan nan nan nan nan nan 248 262 nan 283 291 289 284 275 270 269 267 266 270 274 275 265 259 257
nan nan nan nan nan nan nan nan nan nan nan nan nan nan nan nan nan nan nan nan nan nan nan nan nan nan nan nan nan 258 255 249 248 251 nan nan nan nan nan 253 nan nan nan nan nan nan nan nan nan nan nan nan nan nan nan nan nan nan nan nan nan nan nan nan nan nan nan nan nan nan nan nan 279 278 271 269 275 276 272 269 271 277 276 265 255 249
nan nan nan nan nan nan nan nan nan nan nan nan nan nan nan nan nan nan nan nan nan nan nan nan nan nan nan nan nan 254 255 257 nan nan nan nan nan 255 253 nan nan nan nan nan nan nan nan nan nan nan nan nan nan nan nan nan nan nan nan nan nan nan nan nan nan nan nan nan nan nan nan 269 nan 271 268 269 275 275 275 277 274 274 275 267 255 248
nan nan nan nan nan nan nan nan nan nan nan nan nan nan nan nan nan nan nan nan nan nan nan nan nan nan nan nan nan nan 254 258 nan nan nan nan nan nan nan nan nan nan nan nan nan nan nan nan nan nan nan nan nan nan nan nan nan nan nan nan nan nan nan nan nan nan nan nan nan nan nan nan nan 276 276 285 286 280 279 281 277 272 271 264 252 246
nan nan nan nan nan nan nan nan nan nan nan nan nan nan nan nan nan nan nan nan nan nan nan nan nan nan nan nan nan nan 257 263 nan nan 261 nan nan nan nan nan nan nan nan nan nan nan nan nan nan nan nan nan nan nan nan nan nan nan nan nan nan nan nan nan nan nan nan nan nan nan nan nan nan nan 285 283 280 281 283 283 277 267 264 261 255 249
nan nan nan nan nan nan nan nan nan nan nan nan nan nan nan nan nan nan nan nan nan nan nan nan nan nan nan nan nan nan nan 259 258 259 nan nan nan nan nan nan nan nan nan nan nan nan nan nan nan 251 nan nan nan nan nan nan nan nan nan nan nan nan nan nan nan nan nan nan nan nan nan nan nan nan nan nan 280 280 282 279 276 268 259 255 254 nan
nan nan nan nan nan nan nan nan nan nan nan nan nan nan nan nan nan nan nan nan nan nan nan nan nan nan nan nan nan nan nan 255 nan nan nan nan nan nan nan nan nan nan nan nan nan nan nan nan nan 248 nan nan nan nan nan nan nan nan nan nan nan nan nan nan nan nan nan nan nan nan nan nan nan nan nan nan 279 267 271 274 267 262 256 254 nan nan
nan nan nan nan nan 231 nan nan nan nan nan nan nan nan nan nan nan nan nan nan nan nan nan nan nan nan nan nan nan nan nan nan nan nan nan nan nan nan nan nan nan nan nan nan nan nan nan nan 248 nan nan nan nan nan nan nan nan nan nan nan nan nan nan nan nan nan nan nan nan nan nan nan nan nan nan nan nan 264 264 261 261 257 nan nan nan nan
nan nan nan nan nan nan nan nan nan nan nan nan nan nan nan nan nan nan nan nan nan nan nan nan nan nan nan nan nan nan nan nan nan nan nan nan nan nan nan nan nan nan nan nan nan nan nan nan nan nan nan nan nan nan nan nan nan nan nan nan nan nan nan nan nan nan nan nan nan nan nan nan nan nan nan nan nan 263 259 254 250 247 244 nan nan nan
245 243 233 nan nan 233 nan nan nan nan nan nan nan nan nan nan nan nan nan nan nan nan nan nan nan nan nan nan nan nan nan nan nan nan nan nan nan nan nan nan nan nan nan nan nan nan nan nan nan nan nan nan nan nan nan nan nan nan nan nan nan nan nan nan nan nan nan nan nan nan nan nan nan nan nan nan nan nan nan 256 254 244 237 nan nan nan
249 240 239 nan nan 244 nan nan nan nan nan nan nan nan nan nan nan nan nan nan nan nan nan nan nan nan nan nan nan nan nan nan nan nan nan nan nan nan nan nan nan nan nan nan nan nan nan nan nan nan nan nan nan nan nan nan nan nan nan nan nan nan nan nan nan nan nan nan nan nan nan nan nan nan nan nan nan nan 251 260 nan 241 nan nan nan nan
nan 246 nan nan nan nan nan nan nan nan nan nan nan nan nan nan nan nan nan nan nan nan nan nan nan nan nan nan nan nan nan nan nan nan nan nan nan nan nan nan nan nan nan nan nan nan nan nan nan nan nan nan nan nan nan nan nan nan nan nan nan nan nan nan nan nan nan nan nan nan nan nan nan nan nan nan nan nan nan 251 nan nan nan nan nan nan
nan nan nan nan nan nan nan nan nan nan nan nan nan nan nan nan nan nan nan nan nan nan nan nan nan nan nan nan nan nan nan nan nan nan nan nan nan nan nan nan nan nan nan nan nan nan nan nan nan nan nan nan nan nan nan nan nan nan nan nan nan nan nan nan nan nan nan nan nan nan nan nan nan nan nan nan nan nan nan nan nan nan nan nan nan nan
nan nan nan nan nan nan nan nan nan nan nan nan nan nan nan nan nan nan nan nan nan nan nan nan nan nan nan nan nan nan nan nan nan nan nan nan nan nan nan nan nan nan nan nan nan nan nan nan nan nan nan nan nan nan nan nan nan nan nan nan nan nan nan nan nan nan nan nan nan nan nan nan nan nan nan nan nan nan nan nan nan nan nan nan nan nan
nan nan nan nan nan nan nan nan nan nan nan nan nan nan nan nan nan nan nan nan nan nan nan nan nan nan nan nan nan nan nan nan nan nan nan nan nan nan nan nan nan nan nan nan nan nan nan nan nan nan nan nan nan nan nan nan nan nan nan nan nan nan nan nan nan nan nan nan nan nan nan nan nan nan nan nan nan nan nan nan nan nan nan nan nan nan
nan nan nan nan nan nan nan nan nan nan nan nan nan nan nan nan nan nan nan nan nan nan nan nan nan nan nan nan nan nan nan nan nan nan nan nan nan nan nan nan nan nan nan nan nan nan nan nan nan nan nan nan nan nan nan nan nan nan nan nan nan nan nan nan nan nan nan nan nan nan nan nan nan nan nan nan nan nan nan nan nan nan nan nan nan nan
nan nan nan nan nan nan nan nan nan nan nan nan nan nan nan nan nan nan nan nan nan nan nan nan nan nan nan nan nan nan nan nan nan nan nan nan nan nan nan nan nan nan nan nan nan nan nan nan nan nan nan nan nan nan nan nan nan nan nan nan nan nan nan nan nan nan nan nan nan nan nan nan nan nan nan nan nan nan nan nan nan nan nan nan nan nan
nan nan nan nan nan nan nan nan nan nan nan nan nan nan nan nan nan nan nan nan nan nan nan nan nan nan nan nan nan nan nan nan nan nan nan nan nan nan nan nan nan nan nan nan nan nan nan nan nan nan nan nan nan nan nan nan nan nan nan nan nan nan nan nan nan nan nan nan nan nan nan nan nan nan nan nan nan nan nan nan nan nan nan nan nan nan
nan nan nan nan nan nan nan nan nan nan nan nan nan nan nan nan nan nan nan nan nan nan nan nan nan nan nan nan nan nan nan nan nan nan nan nan nan nan nan nan nan nan nan nan nan nan nan nan nan nan nan nan nan nan nan nan nan nan nan nan nan nan nan nan nan nan nan nan nan nan nan nan nan nan nan nan nan nan nan nan nan nan nan nan nan nan
nan nan nan nan nan nan nan nan nan nan nan nan nan nan nan nan nan nan nan nan nan nan nan nan nan nan nan nan nan nan nan nan nan nan nan nan nan nan nan nan nan nan nan nan nan nan nan nan nan nan nan nan nan nan nan nan nan nan nan nan nan nan nan nan nan nan nan nan nan nan nan nan nan nan nan nan nan nan nan nan nan nan nan nan nan nan
nan nan nan nan nan nan nan nan nan nan nan nan nan nan nan nan nan nan nan nan nan nan nan nan nan nan nan nan nan nan nan nan nan nan nan nan nan nan nan nan nan nan nan nan nan nan nan nan nan nan nan nan nan nan nan nan nan nan nan nan nan nan nan nan nan nan nan nan nan nan nan nan nan nan nan nan nan nan nan nan nan nan nan nan nan nan
nan nan nan nan nan nan nan nan nan nan nan nan nan nan nan nan nan nan nan nan nan nan nan nan nan nan nan nan nan nan nan nan nan nan nan nan nan nan nan nan nan nan nan nan nan nan nan nan nan nan nan nan nan nan nan nan nan nan nan nan nan nan nan nan nan nan nan nan nan nan nan nan nan nan nan nan nan nan nan nan nan nan nan nan nan nan
nan nan nan nan nan nan nan nan nan nan nan nan nan nan nan nan nan nan nan nan nan nan nan nan nan nan nan nan nan nan nan nan nan nan nan nan nan nan nan nan nan nan nan nan nan nan nan nan nan nan nan nan nan nan nan nan nan nan nan nan nan nan nan nan nan nan nan nan nan nan nan nan nan nan nan nan nan nan nan nan nan nan nan nan nan nan
nan nan nan nan nan nan nan nan nan nan nan nan nan nan nan nan nan nan nan nan nan nan nan nan nan nan nan nan nan nan nan nan nan nan nan nan nan nan nan nan nan nan nan nan nan nan nan nan nan nan nan nan nan nan nan nan nan nan nan nan nan nan nan nan nan nan nan nan nan nan nan nan nan nan nan nan nan nan nan nan nan nan nan nan nan nan
nan nan nan nan nan nan nan nan nan nan nan nan nan nan nan nan nan nan nan nan nan nan nan nan nan nan nan nan nan nan nan nan nan nan nan nan nan nan nan nan nan nan nan nan nan nan nan nan nan nan nan nan nan nan nan nan nan nan nan nan nan nan nan nan nan nan nan nan nan nan nan nan nan nan nan nan nan nan nan nan nan nan nan nan nan nan